Home   Weather   Hockenheim   Past weeks

Flag for Germany Past Weather in Hockenheim, Baden-Württemberg, Germany — Yesterday and Last 2 Weeks

Now
75 °F

Passing clouds.


Feels Like: 78 °F
Forecast: 57 / 72 °F
Wind: 9 mph from Southwest

Location: Mannheim City

Current Time: Sep 29, 2016 at 3:42:14 PM

Latest Report: Sep 29, 2016 at 2:50 PM


Visibility: N/A

Pressure: 30.09 "Hg

Humidity: 50%

Dew Point: 55 °F

Location of HockenheimLocation

Past Weather in Hockenheim — Graph

°F

Hockenheim Temperature Yesterday

Maximum temperature yesterday: 75 °F (at 4:20 PM)
Minimum temperature yesterday: 54 °F (at 5:50 AM)
Average temperature yesterday: 65 °F

High & Low Weather Summary for the Past Weeks

 TemperatureHumidityPressure
High90 °F (Sep 14, 3:50 PM)100% (Sep 16, 5:50 AM)30.39 "Hg (Sep 16, 5:50 AM)
Low45 °F (Sep 22, 5:50 AM)24% (Sep 14, 4:50 PM)29.80 "Hg (Sep 15, 5:50 AM)
Average65 °F69%30.11 "Hg
* Reported Sep 14 2:20 PM — Sep 29 2:20 PM, Hockenheim, Weather by CustomWeather, © 2016

Note: Actual official high and low records may vary slightly from our data, if they occured in-between our weather recording intervals... More about our weather records

Advertising

Hockenheim Weather History for the Previous 24 Hours

Scroll right to see more
 ConditionsComfort  
Time TempWeatherWind HumidityBarometerVisibility
2:20 PM
Thu, Sep 29
75 °FPassing clouds.12 mph47%30.09 "HgN/A
1:50 PM75 °FPassing clouds.8 mph50%30.12 "HgN/A
1:20 PM73 °FPassing clouds.12 mph50%30.12 "HgN/A
12:50 PM72 °FPassing clouds.10 mph57%30.15 "HgN/A
12:20 PM70 °FPassing clouds.9 mph60%30.15 "HgN/A
11:50 AM68 °FPassing clouds.9 mph64%30.18 "HgN/A
11:20 AM68 °FPassing clouds.9 mph64%30.18 "HgN/A
10:50 AM66 °FPassing clouds.7 mph68%30.21 "HgN/A
10:20 AM63 °FPassing clouds.8 mph73%30.21 "HgN/A
9:50 AM63 °FPassing clouds.7 mph73%30.21 "HgN/A
9:20 AM61 °FPassing clouds.6 mph77%30.21 "HgN/A
8:50 AM59 °FPassing clouds.5 mph88%30.21 "HgN/A
8:20 AM57 °FSunny.7 mph88%30.21 "Hg10 mi
7:50 AM55 °FPassing clouds.5 mph100%30.24 "HgN/A
7:20 AM55 °FClear.5 mph94%30.24 "Hg10 mi
6:50 AM55 °FClear.3 mph94%30.24 "Hg10 mi
6:20 AM55 °FClear.3 mph94%30.24 "Hg10 mi
5:50 AM55 °FClear.3 mph94%30.24 "Hg10 mi
9:20 PM
Wed, Sep 28
61 °FClear.3 mph77%30.33 "Hg10 mi
8:50 PM64 °FClear.2 mph73%30.33 "Hg10 mi
8:20 PM66 °FClear.3 mph64%30.33 "Hg10 mi
7:50 PM68 °FClear.5 mph60%30.33 "Hg10 mi
7:20 PM70 °FPassing clouds.5 mph57%30.33 "HgN/A
6:50 PM72 °FPassing clouds.5 mph53%30.30 "HgN/A
6:20 PM72 °FPassing clouds.6 mph53%30.33 "HgN/A
5:50 PM72 °FPassing clouds.9 mph50%30.30 "HgN/A
5:20 PM73 °FSunny.9 mph44%30.33 "Hg10 mi
4:50 PM73 °FPassing clouds.9 mph44%30.30 "HgN/A
4:20 PM75 °FPassing clouds.12 mph44%30.33 "HgN/A
3:50 PM73 °FPassing clouds.9 mph44%30.33 "HgN/A
3:20 PM73 °FPassing clouds.9 mph44%30.33 "HgN/A
Weather by CustomWeather, © 2016

See weather overviewHow to use our weather pages